Dewpoint
57 57 58 59 59 59 60 59 58 58 58 57 57 57 57 56 54 43 43 44 47 56 51 35 30 27 26 24 21 19 16 16 20 16 19 20 28 45 47 46 45 54 57 59 60
53 54 55 56 57 58 58 59 59 58 58 57 57 57 56 55 48 40 50 57 56 56 32 25 23 23 23 21 19 18 16 20 17 20 20 22 29 37 44 44 47 47 57 60 60
53 53 53 52 55 57 57 57 58 58 58 57 57 57 56 54 43 38 57 56 56 53 36 30 22 22 20 20 18 17 16 21 18 22 22 26 31 37 45 43 46 49 55 58 58
52 52 53 52 53 54 56 56 58 58 58 58 57 57 56 50 29 43 58 57 57 40 34 22 19 19 20 18 17 15 18 18 19 22 24 32 36 35 48 43 50 55 56 56 57
49 52 53 52 52 54 54 55 56 58 58 57 57 57 51 38 35 50 59 56 39 33 32 21 19 21 22 21 17 16 17 20 19 22 28 32 35 43 49 55 55 55 55 55 56
49 49 50 53 53 54 53 54 55 56 57 57 57 56 48 37 33 49 44 38 29 28 27 21 22 26 25 24 20 23 23 21 19 21 29 33 40 42 50 53 54 54 54 55 54
51 49 51 51 53 53 53 53 54 55 56 57 56 51 46 41 32 31 39 34 29 27 26 27 27 26 27 27 23 21 21 19 21 22 29 35 32 38 48 49 50 51 51 51 53
51 51 50 48 51 52 53 53 54 55 56 57 55 49 42 38 37 35 35 35 30 27 29 28 28 28 28 28 25 21 19 18 25 27 36 37 38 38 43 48 48 45 47 46 49
53 51 51 50 48 51 53 52 52 54 56 55 51 48 36 40 34 30 32 34 30 29 30 28 28 26 25 24 20 19 15 19 25 28 37 39 40 40 44 44 45 44 45 49 51
52 52 51 50 50 50 51 50 50 54 53 50 47 39 38 28 29 29 29 35 28 28 28 29 25 23 22 21 17 17 20 20 26 26 27 39 42 46 48 40 41 40 44 45 48
52 52 52 50 50 50 48 45 42 49 49 39 35 28 21 32 26 24 24 34 29 27 26 26 23 21 21 22 18 16 21 22 23 27 26 28 41 48 49 40 40 39 40 41 43
51 51 52 51 50 51 47 43 35 43 38 33 37 35 34 33 26 26 25 33 30 26 26 25 25 25 23 22 18 16 16 19 21 26 23 17 33 45 48 41 38 40 42 40 41
50 51 50 51 51 48 44 41 42 44 37 24 21 23 23 28 29 26 22 32 29 28 27 26 26 27 22 20 18 17 17 16 19 24 22 19 16 37 41 38 39 39 43 42 40
50 51 49 50 46 42 39 39 41 46 32 12 14 26 24 25 25 27 24 27 29 26 26 24 25 23 21 19 16 16 16 20 22 21 15 23 19 25 30 32 37 38 40 41 42
50 51 49 50 45 42 48 51 48 49 15 2 8 27 28 26 23 25 26 27 26 24 25 24 24 22 23 17 17 18 23 23 22 19 22 21 20 17 23 23 31 38 40 41 41
50 50 49 46 47 44 46 50 49 33 15 6 28 27 26 28 25 22 24 26 27 24 24 23 22 22 23 20 19 19 23 24 24 21 23 24 18 17 20 22 25 33 39 40 41
50 49 48 40 43 45 51 50 35 21 6 3 23 29 26 26 25 25 23 23 23 23 25 21 20 22 22 19 21 21 22 21 20 21 25 23 19 22 24 29 33 34 36 44 41
49 49 47 40 44 49 48 41 19 11 15 8 9 21 28 27 27 25 22 21 24 22 22 21 19 21 21 20 19 22 22 24 23 27 26 33 23 17 24 26 23 24 38 40 40
49 48 46 45 46 49 42 31 23 10 5 13 13 20 22 27 24 25 22 23 23 24 22 22 19 20 21 21 21 23 22 23 23 31 31 35 29 19 21 21 19 20 25 33 31
48 46 43 46 47 48 37 32 28 16 9 10 10 12 16 25 24 23 22 22 23 24 25 24 22 21 21 21 23 22 21 27 26 24 25 22 23 19 24 19 18 21 25 29 34
46 40 42 46 49 42 31 31 27 24 19 16 17 16 13 15 23 24 23 22 24 22 23 23 26 24 24 21 19 21 22 27 29 26 29 26 23 29 28 22 23 24 27 30 34
43 35 42 46 37 37 33 28 30 24 23 21 19 18 16 18 23 28 24 24 24 24 22 24 27 25 22 21 22 22 24 24 27 26 30 36 26 26 30 27 28 27 27 29 33
39 39 45 43 30 32 32 33 26 25 24 22 21 21 20 27 34 35 33 30 28 27 24 26 24 25 24 23 24 22 21 25 29 31 30 34 27 27 25 24 24 27 26 29 32
39 33 40 41 35 31 31 31 27 26 24 21 18 20 21 27 33 36 37 31 35 27 39 38 27 24 25 23 26 24 21 21 28 31 31 31 28 29 28 29 27 27 28 28 31
39 34 38 33 34 32 31 26 26 24 24 24 21 22 21 23 30 34 37 38 36 37 30 36 28 26 24 21 22 21 20 19 20 31 30 31 30 29 28 29 32 30 32 28 30
32 37 38 31 35 32 31 29 24 24 23 21 23 19 21 22 30 33 39 39 36 36 31 36 29 29 28 25 20 21 20 19 19 19 19 22 22 24 26 29 32 31 28 29 30
39 42 36 33 34 32 31 30 28 27 26 22 22 22 24 22 31 39 44 43 41 39 37 33 33 30 28 27 24 23 23 19 19 19 21 22 25 24 23 22 23 28 26 29 35
Lifted_Index
8 8 7 6 6 6 6 6 6 5 6 6 6 7 8 9 8 7 5 5 6 8 8 8 7 8 7 6 5 3 2 1 0 1 1 1 0 -0 -1 -1 -1 -2 -4 -4 -3
10 9 8 7 7 7 7 7 6 6 6 6 6 7 8 8 7 6 5 5 7 8 8 7 7 7 7 6 4 3 2 1 1 1 2 1 0 -1 -1 -1 -0 -1 -3 -4 -3
11 11 10 10 9 9 8 7 7 6 6 6 6 6 7 7 6 5 5 6 7 8 7 7 7 7 6 5 4 2 1 1 1 2 2 1 0 -1 -1 -0 0 -1 -2 -3 -2
12 12 11 11 11 10 9 8 7 7 6 6 6 6 6 6 5 4 5 7 8 8 7 7 7 7 6 4 3 2 1 1 1 2 1 0 -1 -1 -2 -1 -1 -1 -2 -2 -2
12 12 12 11 11 11 10 9 8 7 7 7 6 6 6 6 5 4 5 7 8 8 7 6 6 6 5 3 3 2 2 1 1 1 0 -0 -1 -2 -3 -3 -3 -3 -2 -2 -1
12 12 12 12 11 11 11 10 9 8 8 7 7 7 6 6 5 5 5 6 7 7 6 6 5 5 4 4 3 2 2 2 1 0 -0 -1 -1 -2 -3 -4 -4 -3 -2 -1 -0
12 12 12 12 11 11 11 11 10 9 8 7 7 7 7 6 6 5 5 6 6 6 6 5 5 5 5 4 3 3 2 1 0 -0 -0 -0 0 -1 -2 -3 -3 -2 -1 -0 0
11 12 12 12 12 12 11 11 11 9 8 8 8 8 7 7 7 6 5 5 6 6 6 5 5 5 5 4 3 3 2 1 0 -0 -0 -0 0 -0 -2 -2 -2 -1 -0 -0 0
11 11 12 12 12 12 12 11 11 9 8 8 8 8 7 7 7 7 6 5 6 6 6 5 5 5 5 4 3 2 1 0 -0 -1 -1 -0 -0 -0 -2 -3 -2 -1 -0 -1 -1
11 11 11 12 12 12 12 11 10 8 7 7 7 7 7 7 7 7 6 5 5 6 6 5 5 5 5 4 3 1 0 -0 -1 -1 -1 -1 -1 -1 -2 -3 -2 -1 -1 -1 -1
11 11 11 12 12 12 11 10 8 6 6 7 7 7 7 7 7 7 6 5 5 5 5 5 5 4 4 4 2 1 0 -0 -0 -0 -0 -1 -1 -2 -2 -3 -2 -1 -1 -0 -0
11 11 11 11 11 12 11 9 7 6 7 7 7 7 7 7 7 7 6 5 5 5 4 4 4 3 3 3 2 2 1 0 -0 0 0 0 -1 -2 -2 -2 -2 -2 -1 -0 -0
11 12 12 11 11 11 10 9 8 7 7 8 8 8 7 7 6 6 6 5 4 4 4 3 3 2 3 3 2 2 1 0 -0 0 0 0 -0 -1 -2 -2 -2 -2 -1 -1 -0
12 12 12 12 11 10 9 8 7 6 7 8 8 7 7 7 6 6 5 5 4 4 3 3 2 2 2 3 3 2 1 0 -0 -0 0 0 -0 -0 -1 -1 -2 -2 -2 -1 -1
12 12 12 12 10 8 7 6 5 4 5 6 7 6 6 6 6 5 5 5 5 4 3 3 2 2 2 2 2 1 1 -0 -0 -0 -0 -0 -0 -0 -0 -1 -1 -2 -2 -2 -2
11 12 12 12 10 8 6 4 3 4 5 6 6 6 5 5 5 5 5 5 5 4 3 3 2 2 2 2 2 1 0 -0 -1 -0 -0 -0 -0 -0 0 0 -1 -1 -2 -2 -2
9 10 11 11 9 7 6 4 4 5 7 6 5 5 4 5 5 5 5 5 5 4 4 3 2 2 2 2 1 0 -0 -0 -1 -1 -0 -0 -0 -0 0 0 0 -1 -1 -2 -2
7 7 9 9 7 6 5 4 5 7 8 6 4 3 3 3 4 5 5 5 5 4 3 3 2 2 2 2 1 0 0 -0 -1 -1 -1 -0 -0 -0 0 1 0 0 -0 -1 -1
6 6 7 7 6 5 4 4 6 8 8 5 3 2 1 2 3 4 4 5 4 4 3 2 2 1 1 1 1 0 0 -0 -1 -1 -1 -0 -0 -0 0 0 1 1 1 -0 -0
6 6 6 6 5 4 4 5 6 7 7 4 3 2 1 1 1 3 4 4 4 3 3 2 1 0 0 1 1 1 0 -0 -1 -1 -1 -1 -1 -0 0 0 1 1 1 1 0
6 6 6 6 5 5 5 5 5 6 5 4 3 2 2 1 1 1 2 3 3 3 2 1 1 0 0 0 1 1 0 -0 -1 -1 -1 -1 -1 -0 0 0 0 1 1 1 1
6 6 6 6 5 5 5 5 5 5 4 3 2 2 2 1 0 1 1 2 2 2 2 2 1 0 0 0 0 0 0 -0 -1 -1 -2 -1 -1 0 0 0 0 1 1 1 1
6 6 6 5 5 5 5 5 5 5 4 3 2 1 1 1 0 0 1 0 1 1 1 1 1 1 0 0 0 0 0 -0 -1 -1 -2 -1 -1 -0 0 0 1 0 1 1 1
5 5 5 5 5 5 5 4 4 5 4 4 2 1 1 0 0 1 0 0 0 1 1 1 1 1 1 0 -0 -0 0 -0 -1 -1 -1 -1 -1 -1 -0 0 0 0 0 0 1
4 5 5 5 5 5 4 4 4 4 4 4 2 1 1 1 0 0 0 0 0 0 1 1 1 1 0 -0 -0 -0 -0 -0 -1 -1 -1 -1 -1 -1 -1 -0 0 0 -0 -0 0
3 4 4 4 5 4 4 4 4 4 4 3 3 2 1 1 0 0 0 0 0 0 0 1 1 1 0 -0 -0 -0 0 -0 -0 -0 -0 -1 -1 -1 -1 -0 0 0 -0 -0 -0
3 3 3 4 4 4 4 4 3 3 3 3 3 2 1 1 0 -0 0 0 0 0 0 0 1 0 -0 -1 -0 0 0 -0 -0 -0 -0 -1 -1 -1 -1 -0 -0 -0 0 0 -0